Overview Statistics Trail Chart Weather Telemetry Raw packets
 

This is the latest recevied weather packets stored in our database for station/object N7IGG. If no packets are shown the sender has not sent any weather packets the latest 10 day(s).

<< 91 92 93 94 95 96 97 >>
Time Temp. Humidity Pressure Rain* Wind** Luminosity Snow
1777510785 18.33° C 55% 1022.5 hPa 0 mm - 294 W/m² -
1777510483 18.33° C 55% 1022.3 hPa 0 mm - 284 W/m² -
1777510178 18.89° C 54% 1022.5 hPa 0 mm - 305 W/m² -
1777509875 18.33° C 54% 1022.6 hPa 0 mm - 317 W/m² -
1777509570 18.33° C 53% 1022.6 hPa 0 mm - 330 W/m² -
1777509268 18.33° C 54% 1022.4 hPa 0 mm - 291 W/m² -
1777508965 18.33° C 55% 1022.5 hPa 0 mm - 314 W/m² -
1777508662 17.78° C 60% 1022.5 hPa 0 mm - 388 W/m² -
1777508359 18.33° C 59% 1022.4 hPa 0 mm - 404 W/m² -
1777508056 18.33° C 59% 1022.5 hPa 0 mm - 412 W/m² -
1777507753 17.78° C 60% 1022.7 hPa 0 mm - 424 W/m² -
1777507450 18.33° C 59% 1022.7 hPa 0 mm - 411 W/m² -
1777507147 18.33° C 60% 1022.7 hPa 0 mm - 415 W/m² -
1777506844 18.33° C 62% 1022.5 hPa 0 mm - 431 W/m² -
1777506541 17.78° C 62% 1022.7 hPa 0 mm - 475 W/m² -
1777506236 18.33° C 63% 1022.7 hPa 0 mm - 451 W/m² -
1777505934 18.33° C 64% 1022.8 hPa 0 mm - 354 W/m² -
1777505629 17.78° C 64% 1022.8 hPa 0 mm - 436 W/m² -
1777505326 17.78° C 64% 1022.9 hPa 0 mm - 393 W/m² -
1777505023 18.33° C 63% 1022.8 hPa 0 mm - 459 W/m² -
1777504720 17.78° C 62% 1022.9 hPa 0 mm - 495 W/m² -
1777504417 17.78° C 62% 1023 hPa 0 mm - 498 W/m² -
1777504112 17.78° C 62% 1022.8 hPa 0 mm - 526 W/m² -
1777503808 17.78° C 62% 1022.9 hPa 0 mm - 345 W/m² -
1777503505 17.78° C 62% 1023 hPa 0 mm - 566 W/m² -

* Rain latest hour (hover to see other rain measurements)
** Current wind speed in m/s (hover to see current wind gust speed)